Location: Astronomy Club of Akron Observatory
(40.9700°N, 81.5606°W)
Time: 10:46:07
(UTC-04:00)

ATLAS 2AS CENTAUR R/B - Visible Passes

Search period start: 23 April 2014 00:00
Search period end: 03 May 2014 00:00
Orbit: 924 x 1288 km, 63.7° (Epoch: 19 April)

Date Brightness Start Highest point End Pass type
(mag) Time Alt. Az. Time Alt. Az. Time Alt. Az.
23 Apr 5.0 00:58:56 10° NNW 01:04:52 22° NNE 01:10:48 10° ENE visible
23 Apr 3.3 02:49:28 10° NNW 02:57:30 66° NE 03:02:48 23° SE visible
23 Apr 3.7 04:41:18 10° NW 04:48:01 30° WSW 04:50:00 27° SW visible
23 Apr 5.5 22:21:06 10° NW 22:24:34 13° N 22:28:06 10° NNE visible
24 Apr 5.3 00:14:16 10° NNW 00:19:18 18° NNE 00:24:21 10° ENE visible
24 Apr 3.8 02:04:49 10° NNW 02:12:31 47° NE 02:17:07 24° ESE visible
24 Apr 3.2 03:56:02 10° NW 04:03:37 47° WSW 04:04:25 46° SW visible
24 Apr 5.4 21:34:42 10° NW 21:38:48 15° NNW 21:43:00 10° NNE visible
24 Apr 5.4 23:29:28 10° NNW 23:33:36 15° NNE 23:37:47 10° NE visible
25 Apr 4.3 01:20:13 10° NNW 01:27:23 34° NE 01:32:18 18° E visible
25 Apr 2.9 03:11:03 10° NW 03:19:04 71° WSW 03:19:39 68° SSW visible
25 Apr 4.6 05:05:15 10° WNW 05:06:59 13° W 05:06:59 13° W visible
25 Apr 5.3 20:48:16 10° WNW 20:53:08 18° NNW 20:58:12 10° NNE visible
25 Apr 5.4 22:44:21 10° NNW 22:47:49 13° N 22:51:20 10° NNE visible
26 Apr 4.7 00:35:38 10° NNW 00:42:04 26° NNE 00:47:54 12° E visible
26 Apr 3.0 02:26:15 10° NNW 02:34:21 81° NE 02:35:16 71° ESE visible
26 Apr 4.3 04:18:39 10° WNW 04:22:38 21° W 04:22:38 21° W visible
26 Apr 5.4 21:58:42 10° NNW 22:02:00 13° N 22:05:21 10° NNE visible
26 Apr 5.0 23:51:01 10° NNW 23:56:36 20° NNE 00:02:12 10° ENE visible
27 Apr 3.5 01:41:33 10° NNW 01:49:28 57° NE 01:51:07 49° E visible
27 Apr 3.8 03:33:06 10° NW 03:38:30 33° W 03:38:30 33° W visible
27 Apr 5.4 21:12:30 10° NW 21:16:11 14° N 21:19:57 10° NNE visible
27 Apr 5.2 23:06:19 10° NNW 23:10:59 16° NNE 23:15:41 10° NE visible
28 Apr 4.0 00:56:55 10° NNW 01:04:26 41° NE 01:07:08 32° E visible
28 Apr 3.3 02:47:57 10° NW 02:54:32 51° W 02:54:32 51° W visible
28 Apr 5.3 22:21:24 10° NNW 22:25:15 14° N 22:29:07 10° NE visible
29 Apr 4.4 00:12:20 10° NNW 00:19:13 30° NE 00:23:16 20° E visible
29 Apr 3.0 02:03:03 10° NW 02:10:40 78° WNW 02:10:40 78° WNW visible
29 Apr 4.7 03:56:19 10° WNW 03:58:04 14° W 03:58:04 14° W visible
29 Apr 5.3 21:36:06 10° NNW 21:39:26 13° N 21:42:49 10° NNE visible
29 Apr 4.8 23:27:44 10° NNW 23:33:51 23° NNE 23:39:29 11° ENE visible
30 Apr 3.1 01:18:18 10° NNW 01:26:22 71° NE 01:26:53 69° E visible
30 Apr 4.3 03:10:18 10° NW 03:14:17 24° W 03:14:17 24° W visible
30 Apr 5.3 20:50:13 10° NNW 20:53:36 13° N 20:57:04 10° NNE visible
30 Apr 5.1 22:43:06 10° NNW 22:48:19 18° NNE 22:53:33 10° ENE visible
01 May 3.6 00:33:38 10° NNW 00:41:25 50° NE 00:43:11 43° E visible
01 May 3.8 02:24:57 10° NW 02:30:35 38° W 02:30:35 38° W visible
01 May 5.2 21:58:19 10° NNW 22:02:38 15° NNE 22:06:59 10° NE visible
01 May 4.1 23:49:01 10° NNW 23:56:18 36° NE 23:59:32 27° E visible
02 May 3.2 01:39:55 10° NW 01:46:57 61° W 01:46:57 61° W visible
02 May 5.2 21:13:17 10° NNW 21:16:52 13° N 21:20:29 10° NE visible
02 May 4.5 23:04:26 10° NNW 23:11:02 27° NE 23:15:57 16° E visible
